owner,sensor,date,latitude,longitude,vertical_datum,wind_speed,wind_to_direction,wind_speed_of_gust,qcFlag 
DISL,ioos:station:DISL:CATA:1,2013-10-01T00:00:00Z,30.3085,-88.1395,0.0,2.9,141.0,99.0,'11111222,11111222,11144222' 
DISL,ioos:station:DISL:CATA:1,2013-10-01T00:30:00Z,30.3085,-88.1395,0.0,2.7,128.0,99.0,'11111222,11111222,11144222' 
DISL,ioos:station:DISL:CATA:1,2013-10-01T01:00:00Z,30.3085,-88.1395,0.0,2.8,123.0,99.0,'11111222,11111222,11144222' 
DISL,ioos:station:DISL:CATA:1,2013-10-01T01:30:00Z,30.3085,-88.1395,0.0,2.6,100.0,99.0,'11111222,11111222,11144222' 
DISL,ioos:station:DISL:CATA:1,2013-10-01T02:00:00Z,30.3085,-88.1395,0.0,2.9,92.0,99.0,'11111222,11111222,11144222' 
DISL,ioos:station:DISL:CATA:1,2013-10-01T02:30:00Z,30.3085,-88.1395,0.0,3.0,87.0,99.0,'11111222,11111222,11144222' 
DISL,ioos:station:DISL:CATA:1,2013-10-01T03:00:00Z,30.3085,-88.1395,0.0,3.5,104.0,99.0,'11111222,11111222,11144222' 
DISL,ioos:station:DISL:CATA:1,2013-10-01T03:30:00Z,30.3085,-88.1395,0.0,4.1,111.0,99.0,'11111222,11111222,11144222' 
DISL,ioos:station:DISL:CATA:1,2013-10-01T04:00:00Z,30.3085,-88.1395,0.0,4.1,96.0,99.0,'11111222,11111222,11144222' 
DISL,ioos:station:DISL:CATA:1,2013-10-01T04:30:00Z,30.3085,-88.1395,0.0,4.4,93.0,99.0,'11111222,11111222,11144222' 
DISL,ioos:station:DISL:CATA:1,2013-10-01T05:00:00Z,30.3085,-88.1395,0.0,3.8,87.0,99.0,'11111222,11111222,11144222' 
DISL,ioos:station:DISL:CATA:1,2013-10-01T05:30:00Z,30.3085,-88.1395,0.0,3.9,105.0,99.0,'11111222,11111222,11144222' 
DISL,ioos:station:DISL:CATA:1,2013-10-01T06:30:00Z,30.3085,-88.1395,0.0,3.2,66.0,99.0,'11111222,11111222,11144222' 
DISL,ioos:station:DISL:CATA:1,2013-10-01T07:00:00Z,30.3085,-88.1395,0.0,4.1,66.0,99.0,'11111222,11111222,11144222' 
DISL,ioos:station:DISL:CATA:1,2013-10-01T07:30:00Z,30.3085,-88.1395,0.0,4.1,74.0,99.0,'11111222,11111222,11144222' 
DISL,ioos:station:DISL:CATA:1,2013-10-01T08:00:00Z,30.3085,-88.1395,0.0,3.6,74.0,99.0,'11111222,11111222,11144222' 
DISL,ioos:station:DISL:CATA:1,2013-10-01T08:30:00Z,30.3085,-88.1395,0.0,3.8,71.0,99.0,'11111222,11111222,11144222' 
DISL,ioos:station:DISL:CATA:1,2013-10-01T09:00:00Z,30.3085,-88.1395,0.0,4.3,76.0,99.0,'11111222,11111222,11144222' 
DISL,ioos:station:DISL:CATA:1,2013-10-01T09:30:00Z,30.3085,-88.1395,0.0,4.2,85.0,99.0,'11111222,11111222,11144222' 
DISL,ioos:station:DISL:CATA:1,2013-10-01T10:00:00Z,30.3085,-88.1395,0.0,4.3,86.0,99.0,'11111222,11111222,11144222' 
DISL,ioos:station:DISL:CATA:1,2013-10-01T10:30:00Z,30.3085,-88.1395,0.0,4.2,81.0,99.0,'11111222,11111222,11144222' 
DISL,ioos:station:DISL:CATA:1,2013-10-01T11:00:00Z,30.3085,-88.1395,0.0,5.3,68.0,99.0,'11111222,11111222,11144222' 
DISL,ioos:station:DISL:CATA:1,2013-10-01T11:30:00Z,30.3085,-88.1395,0.0,5.8,81.0,99.0,'11111222,11111222,11144222' 
DISL,ioos:station:DISL:CATA:1,2013-10-01T12:00:00Z,30.3085,-88.1395,0.0,5.8,76.0,99.0,'11111222,11111222,11144222' 
DISL,ioos:station:DISL:CATA:1,2013-10-01T12:30:00Z,30.3085,-88.1395,0.0,6.3,82.0,99.0,'11111222,11111222,11144222' 
DISL,ioos:station:DISL:CATA:1,2013-10-01T13:00:00Z,30.3085,-88.1395,0.0,6.7,84.0,99.0,'11111222,11111222,11144222' 
DISL,ioos:station:DISL:CATA:1,2013-10-01T13:30:00Z,30.3085,-88.1395,0.0,5.4,69.0,99.0,'11111222,11111222,11144222' 
DISL,ioos:station:DISL:CATA:1,2013-10-01T14:00:00Z,30.3085,-88.1395,0.0,5.2,72.0,99.0,'11111222,11111222,11144222' 
DISL,ioos:station:DISL:CATA:1,2013-10-01T14:30:00Z,30.3085,-88.1395,0.0,5.5,86.0,99.0,'11111222,11111222,11144222' 
DISL,ioos:station:DISL:CATA:1,2013-10-01T15:00:00Z,30.3085,-88.1395,0.0,5.9,74.0,99.0,'11111222,11111222,11144222' 
DISL,ioos:station:DISL:CATA:1,2013-10-01T15:30:00Z,30.3085,-88.1395,0.0,5.6,75.0,99.0,'11111222,11111222,11144222' 
DISL,ioos:station:DISL:CATA:1,2013-10-01T16:00:00Z,30.3085,-88.1395,0.0,5.2,83.0,99.0,'11111222,11111222,11144222' 
DISL,ioos:station:DISL:CATA:1,2013-10-01T16:30:00Z,30.3085,-88.1395,0.0,5.1,83.0,99.0,'11111222,11111222,11144222' 
DISL,ioos:station:DISL:CATA:1,2013-10-01T17:00:00Z,30.3085,-88.1395,0.0,4.2,84.0,99.0,'11111222,11111222,11144222' 
DISL,ioos:station:DISL:CATA:1,2013-10-01T17:30:00Z,30.3085,-88.1395,0.0,3.6,94.0,99.0,'11111222,11111222,11144222' 
DISL,ioos:station:DISL:CATA:1,2013-10-01T18:00:00Z,30.3085,-88.1395,0.0,3.5,106.0,99.0,'11111222,11111222,11144222' 
DISL,ioos:station:DISL:CATA:1,2013-10-01T18:30:00Z,30.3085,-88.1395,0.0,5.4,132.0,99.0,'11111222,11111222,11144222' 
DISL,ioos:station:DISL:CATA:1,2013-10-01T19:00:00Z,30.3085,-88.1395,0.0,5.8,134.0,99.0,'11111222,11111222,11144222' 
DISL,ioos:station:DISL:CATA:1,2013-10-01T19:30:00Z,30.3085,-88.1395,0.0,5.9,135.0,99.0,'11111222,11111222,11144222' 
DISL,ioos:station:DISL:CATA:1,2013-10-01T20:00:00Z,30.3085,-88.1395,0.0,5.7,127.0,99.0,'11111222,11111222,11144222' 
DISL,ioos:station:DISL:CATA:1,2013-10-01T20:30:00Z,30.3085,-88.1395,0.0,6.2,133.0,99.0,'11111222,11111222,11144222' 
DISL,ioos:station:DISL:CATA:1,2013-10-01T21:00:00Z,30.3085,-88.1395,0.0,5.5,131.0,99.0,'11111222,11111222,11144222' 
DISL,ioos:station:DISL:CATA:1,2013-10-01T21:30:00Z,30.3085,-88.1395,0.0,6.0,134.0,99.0,'11111222,11111222,11144222' 
DISL,ioos:station:DISL:CATA:1,2013-10-01T22:00:00Z,30.3085,-88.1395,0.0,5.3,133.0,99.0,'11111222,11111222,11144222' 
DISL,ioos:station:DISL:CATA:1,2013-10-01T22:30:00Z,30.3085,-88.1395,0.0,5.8,136.0,99.0,'11111222,11111222,11144222' 
DISL,ioos:station:DISL:CATA:1,2013-10-01T23:00:00Z,30.3085,-88.1395,0.0,4.1,131.0,99.0,'11111222,11111222,11144222' 
DISL,ioos:station:DISL:CATA:1,2013-10-01T23:30:00Z,30.3085,-88.1395,0.0,3.8,120.0,99.0,'11111222,11111222,11144222' 
DISL,ioos:station:DISL:CATA:1,2013-10-02T00:00:00Z,30.3085,-88.1395,0.0,3.9,126.0,99.0,'11111222,11111222,11144222' 
DISL,ioos:station:DISL:CATA:1,2013-10-02T00:30:00Z,30.3085,-88.1395,0.0,3.6,108.0,99.0,'11111222,11111222,11144222' 
DISL,ioos:station:DISL:CATA:1,2013-10-02T01:00:00Z,30.3085,-88.1395,0.0,4.1,117.0,99.0,'11111222,11111222,11144222' 
DISL,ioos:station:DISL:CATA:1,2013-10-02T01:30:00Z,30.3085,-88.1395,0.0,5.0,119.0,99.0,'11111222,11111222,11144222' 
DISL,ioos:station:DISL:CATA:1,2013-10-02T02:00:00Z,30.3085,-88.1395,0.0,5.7,121.0,99.0,'11111222,11111222,11144222' 
DISL,ioos:station:DISL:CATA:1,2013-10-02T02:30:00Z,30.3085,-88.1395,0.0,4.6,110.0,99.0,'11111222,11111222,11144222' 
DISL,ioos:station:DISL:CATA:1,2013-10-02T03:00:00Z,30.3085,-88.1395,0.0,4.6,111.0,99.0,'11111222,11111222,11144222' 
DISL,ioos:station:DISL:CATA:1,2013-10-02T03:30:00Z,30.3085,-88.1395,0.0,4.8,110.0,99.0,'11111222,11111222,11144222' 
DISL,ioos:station:DISL:CATA:1,2013-10-02T04:00:00Z,30.3085,-88.1395,0.0,4.9,109.0,99.0,'11111222,11111222,11144222' 
DISL,ioos:station:DISL:CATA:1,2013-10-02T04:30:00Z,30.3085,-88.1395,0.0,4.7,102.0,99.0,'11111222,11111222,11144222' 
DISL,ioos:station:DISL:CATA:1,2013-10-02T05:00:00Z,30.3085,-88.1395,0.0,4.3,86.0,99.0,'11111222,11111222,11144222' 
DISL,ioos:station:DISL:CATA:1,2013-10-02T05:30:00Z,30.3085,-88.1395,0.0,4.2,86.0,99.0,'11111222,11111222,11144222' 
DISL,ioos:station:DISL:CATA:1,2013-10-02T06:30:00Z,30.3085,-88.1395,0.0,4.4,79.0,99.0,'11111222,11111222,11144222' 
DISL,ioos:station:DISL:CATA:1,2013-10-02T07:00:00Z,30.3085,-88.1395,0.0,4.7,79.0,99.0,'11111222,11111222,11144222' 
DISL,ioos:station:DISL:CATA:1,2013-10-02T07:30:00Z,30.3085,-88.1395,0.0,5.1,67.0,99.0,'11111222,11111222,11144222' 
DISL,ioos:station:DISL:CATA:1,2013-10-02T08:00:00Z,30.3085,-88.1395,0.0,5.8,75.0,99.0,'11111222,11111222,11144222' 
DISL,ioos:station:DISL:CATA:1,2013-10-02T08:30:00Z,30.3085,-88.1395,0.0,6.4,75.0,99.0,'11111222,11111222,11144222' 
DISL,ioos:station:DISL:CATA:1,2013-10-02T09:00:00Z,30.3085,-88.1395,0.0,6.2,76.0,99.0,'11111222,11111222,11144222' 
DISL,ioos:station:DISL:CATA:1,2013-10-02T09:30:00Z,30.3085,-88.1395,0.0,5.5,83.0,99.0,'11111222,11111222,11144222' 
DISL,ioos:station:DISL:CATA:1,2013-10-02T10:00:00Z,30.3085,-88.1395,0.0,6.0,76.0,99.0,'11111222,11111222,11144222' 
DISL,ioos:station:DISL:CATA:1,2013-10-02T10:30:00Z,30.3085,-88.1395,0.0,7.3,105.0,99.0,'11111222,11111222,11144222' 
DISL,ioos:station:DISL:CATA:1,2013-10-02T11:00:00Z,30.3085,-88.1395,0.0,4.9,143.0,99.0,'11111222,11111222,11144222' 
DISL,ioos:station:DISL:CATA:1,2013-10-02T11:30:00Z,30.3085,-88.1395,0.0,3.7,86.0,99.0,'11111222,11111222,11144222' 
DISL,ioos:station:DISL:CATA:1,2013-10-02T12:00:00Z,30.3085,-88.1395,0.0,2.9,68.0,99.0,'11111222,11111222,11144222' 
DISL,ioos:station:DISL:CATA:1,2013-10-02T12:30:00Z,30.3085,-88.1395,0.0,4.4,69.0,99.0,'11111222,11111222,11144222' 
DISL,ioos:station:DISL:CATA:1,2013-10-02T13:00:00Z,30.3085,-88.1395,0.0,4.7,80.0,99.0,'11111222,11111222,11144222' 
DISL,ioos:station:DISL:CATA:1,2013-10-02T13:30:00Z,30.3085,-88.1395,0.0,4.3,86.0,99.0,'11111222,11111222,11144222' 
DISL,ioos:station:DISL:CATA:1,2013-10-02T14:00:00Z,30.3085,-88.1395,0.0,3.7,84.0,99.0,'11111222,11111222,11144222' 
DISL,ioos:station:DISL:CATA:1,2013-10-02T14:30:00Z,30.3085,-88.1395,0.0,7.4,163.0,99.0,'11111222,11111222,11144222' 
DISL,ioos:station:DISL:CATA:1,2013-10-02T15:00:00Z,30.3085,-88.1395,0.0,3.7,145.0,99.0,'11111222,11111222,11144222' 
DISL,ioos:station:DISL:CATA:1,2013-10-02T15:30:00Z,30.3085,-88.1395,0.0,5.5,130.0,99.0,'11111222,11111222,11144222' 
DISL,ioos:station:DISL:CATA:1,2013-10-02T16:00:00Z,30.3085,-88.1395,0.0,5.5,124.0,99.0,'11111222,11111222,11144222' 
DISL,ioos:station:DISL:CATA:1,2013-10-02T16:30:00Z,30.3085,-88.1395,0.0,4.4,100.0,99.0,'11111222,11111222,11144222' 
DISL,ioos:station:DISL:CATA:1,2013-10-02T17:00:00Z,30.3085,-88.1395,0.0,3.7,81.0,99.0,'11111222,11111222,11144222' 
DISL,ioos:station:DISL:CATA:1,2013-10-02T17:30:00Z,30.3085,-88.1395,0.0,3.0,85.0,99.0,'11111222,11111222,11144222' 
DISL,ioos:station:DISL:CATA:1,2013-10-02T18:00:00Z,30.3085,-88.1395,0.0,2.8,75.0,99.0,'11111222,11111222,11144222' 
DISL,ioos:station:DISL:CATA:1,2013-10-02T18:30:00Z,30.3085,-88.1395,0.0,3.0,62.0,99.0,'11111222,11111222,11144222' 
DISL,ioos:station:DISL:CATA:1,2013-10-02T19:00:00Z,30.3085,-88.1395,0.0,3.5,52.0,99.0,'11111222,11111222,11144222' 
DISL,ioos:station:DISL:CATA:1,2013-10-02T19:30:00Z,30.3085,-88.1395,0.0,4.5,42.0,99.0,'11111222,11111222,11144222' 
DISL,ioos:station:DISL:CATA:1,2013-10-02T20:00:00Z,30.3085,-88.1395,0.0,5.1,42.0,99.0,'11111222,11111222,11144222' 
DISL,ioos:station:DISL:CATA:1,2013-10-02T20:30:00Z,30.3085,-88.1395,0.0,3.4,51.0,99.0,'11111222,11111222,11144222' 
DISL,ioos:station:DISL:CATA:1,2013-10-02T21:00:00Z,30.3085,-88.1395,0.0,4.0,43.0,99.0,'11111222,11111222,11144222' 
DISL,ioos:station:DISL:CATA:1,2013-10-02T21:30:00Z,30.3085,-88.1395,0.0,3.4,60.0,99.0,'11111222,11111222,11144222' 
DISL,ioos:station:DISL:CATA:1,2013-10-02T22:00:00Z,30.3085,-88.1395,0.0,7.5,112.0,99.0,'11111222,11111222,11144222' 
DISL,ioos:station:DISL:CATA:1,2013-10-02T22:30:00Z,30.3085,-88.1395,0.0,7.2,109.0,99.0,'11111222,11111222,11144222' 
DISL,ioos:station:DISL:CATA:1,2013-10-02T23:00:00Z,30.3085,-88.1395,0.0,6.8,110.0,99.0,'11111222,11111222,11144222' 
DISL,ioos:station:DISL:CATA:1,2013-10-02T23:30:00Z,30.3085,-88.1395,0.0,5.7,116.0,99.0,'11111222,11111222,11144222' 
DISL,ioos:station:DISL:CATA:1,2013-10-03T00:00:00Z,30.3085,-88.1395,0.0,6.2,113.0,99.0,'11111222,11111222,11144222' 
DISL,ioos:station:DISL:CATA:1,2013-10-03T00:30:00Z,30.3085,-88.1395,0.0,5.7,109.0,99.0,'11111222,11111222,11144222' 
DISL,ioos:station:DISL:CATA:1,2013-10-03T01:00:00Z,30.3085,-88.1395,0.0,5.4,96.0,99.0,'11111222,11111222,11144222' 
DISL,ioos:station:DISL:CATA:1,2013-10-03T01:30:00Z,30.3085,-88.1395,0.0,5.0,81.0,99.0,'11111222,11111222,11144222' 
DISL,ioos:station:DISL:CATA:1,2013-10-03T02:00:00Z,30.3085,-88.1395,0.0,4.7,76.0,99.0,'11111222,11111222,11144222' 
DISL,ioos:station:DISL:CATA:1,2013-10-03T02:30:00Z,30.3085,-88.1395,0.0,4.5,80.0,99.0,'11111222,11111222,11144222' 
DISL,ioos:station:DISL:CATA:1,2013-10-03T03:00:00Z,30.3085,-88.1395,0.0,4.5,88.0,99.0,'11111222,11111222,11144222' 
DISL,ioos:station:DISL:CATA:1,2013-10-03T03:30:00Z,30.3085,-88.1395,0.0,6.2,86.0,99.0,'11111222,11111222,11144222' 
DISL,ioos:station:DISL:CATA:1,2013-10-03T04:00:00Z,30.3085,-88.1395,0.0,5.5,99.0,99.0,'11111222,11111222,11144222' 
DISL,ioos:station:DISL:CATA:1,2013-10-03T04:30:00Z,30.3085,-88.1395,0.0,4.9,107.0,99.0,'11111222,11111222,11144222' 
DISL,ioos:station:DISL:CATA:1,2013-10-03T05:00:00Z,30.3085,-88.1395,0.0,5.8,136.0,99.0,'11111222,11111222,11144222' 
DISL,ioos:station:DISL:CATA:1,2013-10-03T05:30:00Z,30.3085,-88.1395,0.0,7.1,138.0,99.0,'11111222,11111222,11144222' 
DISL,ioos:station:DISL:CATA:1,2013-10-03T06:30:00Z,30.3085,-88.1395,0.0,6.3,147.0,99.0,'11111222,11111222,11144222' 
DISL,ioos:station:DISL:CATA:1,2013-10-03T07:00:00Z,30.3085,-88.1395,0.0,6.6,173.0,99.0,'11111222,11111222,11144222' 
DISL,ioos:station:DISL:CATA:1,2013-10-03T07:30:00Z,30.3085,-88.1395,0.0,4.5,148.0,99.0,'11111222,11111222,11144222' 
DISL,ioos:station:DISL:CATA:1,2013-10-03T08:00:00Z,30.3085,-88.1395,0.0,6.2,138.0,99.0,'11111222,11111222,11144222' 
DISL,ioos:station:DISL:CATA:1,2013-10-03T08:30:00Z,30.3085,-88.1395,0.0,5.4,131.0,99.0,'11111222,11111222,11144222' 
DISL,ioos:station:DISL:CATA:1,2013-10-03T09:00:00Z,30.3085,-88.1395,0.0,5.1,127.0,99.0,'11111222,11111222,11144222' 
DISL,ioos:station:DISL:CATA:1,2013-10-03T09:30:00Z,30.3085,-88.1395,0.0,5.1,131.0,99.0,'11111222,11111222,11144222' 
DISL,ioos:station:DISL:CATA:1,2013-10-03T10:00:00Z,30.3085,-88.1395,0.0,4.9,120.0,99.0,'11111222,11111222,11144222' 
DISL,ioos:station:DISL:CATA:1,2013-10-03T10:30:00Z,30.3085,-88.1395,0.0,4.1,86.0,99.0,'11111222,11111222,11144222' 
DISL,ioos:station:DISL:CATA:1,2013-10-03T11:00:00Z,30.3085,-88.1395,0.0,4.3,81.0,99.0,'11111222,11111222,11144222' 
DISL,ioos:station:DISL:CATA:1,2013-10-03T11:30:00Z,30.3085,-88.1395,0.0,4.3,72.0,99.0,'11111222,11111222,11144222' 
DISL,ioos:station:DISL:CATA:1,2013-10-03T12:00:00Z,30.3085,-88.1395,0.0,4.8,73.0,99.0,'11111222,11111222,11144222' 
DISL,ioos:station:DISL:CATA:1,2013-10-03T12:30:00Z,30.3085,-88.1395,0.0,5.3,77.0,99.0,'11111222,11111222,11144222' 
DISL,ioos:station:DISL:CATA:1,2013-10-03T13:00:00Z,30.3085,-88.1395,0.0,5.7,78.0,99.0,'11111222,11111222,11144222' 
DISL,ioos:station:DISL:CATA:1,2013-10-03T13:30:00Z,30.3085,-88.1395,0.0,5.4,80.0,99.0,'11111222,11111222,11144222' 
DISL,ioos:station:DISL:CATA:1,2013-10-03T14:00:00Z,30.3085,-88.1395,0.0,5.3,82.0,99.0,'11111222,11111222,11144222' 
DISL,ioos:station:DISL:CATA:1,2013-10-03T14:30:00Z,30.3085,-88.1395,0.0,5.1,92.0,99.0,'11111222,11111222,11144222' 
DISL,ioos:station:DISL:CATA:1,2013-10-03T15:00:00Z,30.3085,-88.1395,0.0,4.9,88.0,99.0,'11111222,11111222,11144222' 
DISL,ioos:station:DISL:CATA:1,2013-10-03T15:30:00Z,30.3085,-88.1395,0.0,4.7,92.0,99.0,'11111222,11111222,11144222' 
DISL,ioos:station:DISL:CATA:1,2013-10-03T16:00:00Z,30.3085,-88.1395,0.0,4.5,96.0,99.0,'11111222,11111222,11144222' 
DISL,ioos:station:DISL:CATA:1,2013-10-03T16:30:00Z,30.3085,-88.1395,0.0,4.6,83.0,99.0,'11111222,11111222,11144222' 
DISL,ioos:station:DISL:CATA:1,2013-10-03T17:00:00Z,30.3085,-88.1395,0.0,4.3,85.0,99.0,'11111222,11111222,11144222' 
DISL,ioos:station:DISL:CATA:1,2013-10-03T17:30:00Z,30.3085,-88.1395,0.0,5.7,125.0,99.0,'11111222,11111222,11144222' 
DISL,ioos:station:DISL:CATA:1,2013-10-03T18:00:00Z,30.3085,-88.1395,0.0,6.4,111.0,99.0,'11111222,11111222,11144222' 
DISL,ioos:station:DISL:CATA:1,2013-10-03T18:30:00Z,30.3085,-88.1395,0.0,6.6,112.0,99.0,'11111222,11111222,11144222' 
DISL,ioos:station:DISL:CATA:1,2013-10-03T19:00:00Z,30.3085,-88.1395,0.0,6.8,102.0,99.0,'11111222,11111222,11144222' 
DISL,ioos:station:DISL:CATA:1,2013-10-03T19:30:00Z,30.3085,-88.1395,0.0,8.1,106.0,99.0,'11111222,11111222,11144222' 
DISL,ioos:station:DISL:CATA:1,2013-10-03T20:00:00Z,30.3085,-88.1395,0.0,8.5,116.0,99.0,'11111222,11111222,11144222' 
DISL,ioos:station:DISL:CATA:1,2013-10-03T20:30:00Z,30.3085,-88.1395,0.0,11.2,167.0,99.0,'11111222,11111222,11144222' 
DISL,ioos:station:DISL:CATA:1,2013-10-03T21:00:00Z,30.3085,-88.1395,0.0,7.5,163.0,99.0,'11111222,11111222,11144222' 
DISL,ioos:station:DISL:CATA:1,2013-10-03T21:30:00Z,30.3085,-88.1395,0.0,6.3,138.0,99.0,'11111222,11111222,11144222' 
DISL,ioos:station:DISL:CATA:1,2013-10-03T22:00:00Z,30.3085,-88.1395,0.0,5.3,120.0,99.0,'11111222,11111222,11144222' 
DISL,ioos:station:DISL:CATA:1,2013-10-03T22:30:00Z,30.3085,-88.1395,0.0,3.3,121.0,99.0,'11111222,11111222,11144222' 
DISL,ioos:station:DISL:CATA:1,2013-10-03T23:00:00Z,30.3085,-88.1395,0.0,3.6,147.0,99.0,'11111222,11111222,11144222' 
DISL,ioos:station:DISL:CATA:1,2013-10-03T23:30:00Z,30.3085,-88.1395,0.0,6.5,122.0,99.0,'11111222,11111222,11144222' 
DISL,ioos:station:DISL:CATA:1,2013-10-04T00:00:00Z,30.3085,-88.1395,0.0,7.4,129.0,99.0,'11111222,11111222,11144222' 
DISL,ioos:station:DISL:CATA:1,2013-10-04T00:30:00Z,30.3085,-88.1395,0.0,7.9,123.0,99.0,'11111222,11111222,11144222' 
DISL,ioos:station:DISL:CATA:1,2013-10-04T01:00:00Z,30.3085,-88.1395,0.0,7.0,133.0,99.0,'11111222,11111222,11144222' 
DISL,ioos:station:DISL:CATA:1,2013-10-04T01:30:00Z,30.3085,-88.1395,0.0,7.8,134.0,99.0,'11111222,11111222,11144222' 
DISL,ioos:station:DISL:CATA:1,2013-10-04T02:00:00Z,30.3085,-88.1395,0.0,8.1,146.0,99.0,'11111222,11111222,11144222' 
DISL,ioos:station:DISL:CATA:1,2013-10-04T02:30:00Z,30.3085,-88.1395,0.0,6.5,148.0,99.0,'11111222,11111222,11144222' 
DISL,ioos:station:DISL:CATA:1,2013-10-04T03:00:00Z,30.3085,-88.1395,0.0,9.0,152.0,99.0,'11111222,11111222,11144222' 
DISL,ioos:station:DISL:CATA:1,2013-10-04T03:30:00Z,30.3085,-88.1395,0.0,6.5,156.0,99.0,'11111222,11111222,11144222' 
DISL,ioos:station:DISL:CATA:1,2013-10-04T04:00:00Z,30.3085,-88.1395,0.0,5.4,145.0,99.0,'11111222,11111222,11144222' 
DISL,ioos:station:DISL:CATA:1,2013-10-04T04:30:00Z,30.3085,-88.1395,0.0,3.8,151.0,99.0,'11111222,11111222,11144222' 
DISL,ioos:station:DISL:CATA:1,2013-10-04T05:00:00Z,30.3085,-88.1395,0.0,4.3,137.0,99.0,'11111222,11111222,11144222' 
DISL,ioos:station:DISL:CATA:1,2013-10-04T05:30:00Z,30.3085,-88.1395,0.0,3.4,146.0,99.0,'11111222,11111222,11144222' 
DISL,ioos:station:DISL:CATA:1,2013-10-04T06:30:00Z,30.3085,-88.1395,0.0,4.3,126.0,99.0,'11111222,11111222,11144222' 
DISL,ioos:station:DISL:CATA:1,2013-10-04T07:00:00Z,30.3085,-88.1395,0.0,4.5,128.0,99.0,'11111222,11111222,11144222' 
DISL,ioos:station:DISL:CATA:1,2013-10-04T07:30:00Z,30.3085,-88.1395,0.0,4.0,133.0,99.0,'11111222,11111222,11144222' 
DISL,ioos:station:DISL:CATA:1,2013-10-04T08:00:00Z,30.3085,-88.1395,0.0,3.3,140.0,99.0,'11111222,11111222,11144222' 
DISL,ioos:station:DISL:CATA:1,2013-10-04T08:30:00Z,30.3085,-88.1395,0.0,3.7,133.0,99.0,'11111222,11111222,11144222' 
DISL,ioos:station:DISL:CATA:1,2013-10-04T09:00:00Z,30.3085,-88.1395,0.0,3.7,115.0,99.0,'11111222,11111222,11144222' 
DISL,ioos:station:DISL:CATA:1,2013-10-04T09:30:00Z,30.3085,-88.1395,0.0,3.3,92.0,99.0,'11111222,11111222,11144222' 
DISL,ioos:station:DISL:CATA:1,2013-10-04T10:00:00Z,30.3085,-88.1395,0.0,4.1,106.0,99.0,'11111222,11111222,11144222' 
DISL,ioos:station:DISL:CATA:1,2013-10-04T10:30:00Z,30.3085,-88.1395,0.0,4.5,103.0,99.0,'11111222,11111222,11144222' 
DISL,ioos:station:DISL:CATA:1,2013-10-04T11:00:00Z,30.3085,-88.1395,0.0,4.4,104.0,99.0,'11111222,11111222,11144222' 
DISL,ioos:station:DISL:CATA:1,2013-10-04T11:30:00Z,30.3085,-88.1395,0.0,3.7,101.0,99.0,'11111222,11111222,11144222' 
DISL,ioos:station:DISL:CATA:1,2013-10-04T12:00:00Z,30.3085,-88.1395,0.0,3.6,100.0,99.0,'11111222,11111222,11144222' 
DISL,ioos:station:DISL:CATA:1,2013-10-04T12:30:00Z,30.3085,-88.1395,0.0,4.0,83.0,99.0,'11111222,11111222,11144222' 
DISL,ioos:station:DISL:CATA:1,2013-10-04T13:00:00Z,30.3085,-88.1395,0.0,3.5,92.0,99.0,'11111222,11111222,11144222' 
DISL,ioos:station:DISL:CATA:1,2013-10-04T13:30:00Z,30.3085,-88.1395,0.0,4.1,78.0,99.0,'11111222,11111222,11144222' 
DISL,ioos:station:DISL:CATA:1,2013-10-04T14:00:00Z,30.3085,-88.1395,0.0,4.2,81.0,99.0,'11111222,11111222,11144222' 
DISL,ioos:station:DISL:CATA:1,2013-10-04T14:30:00Z,30.3085,-88.1395,0.0,3.9,75.0,99.0,'11111222,11111222,11144222' 
DISL,ioos:station:DISL:CATA:1,2013-10-04T15:00:00Z,30.3085,-88.1395,0.0,3.5,78.0,99.0,'11111222,11111222,11144222' 
DISL,ioos:station:DISL:CATA:1,2013-10-04T15:30:00Z,30.3085,-88.1395,0.0,3.6,94.0,99.0,'11111222,11111222,11144222' 
DISL,ioos:station:DISL:CATA:1,2013-10-04T16:00:00Z,30.3085,-88.1395,0.0,4.0,91.0,99.0,'11111222,11111222,11144222' 
DISL,ioos:station:DISL:CATA:1,2013-10-04T16:30:00Z,30.3085,-88.1395,0.0,6.3,133.0,99.0,'11111222,11111222,11144222' 
DISL,ioos:station:DISL:CATA:1,2013-10-04T17:00:00Z,30.3085,-88.1395,0.0,7.0,134.0,99.0,'11111222,11111222,11144222' 
DISL,ioos:station:DISL:CATA:1,2013-10-04T17:30:00Z,30.3085,-88.1395,0.0,6.2,132.0,99.0,'11111222,11111222,11144222' 
DISL,ioos:station:DISL:CATA:1,2013-10-04T18:00:00Z,30.3085,-88.1395,0.0,7.2,140.0,99.0,'11111222,11111222,11144222' 
DISL,ioos:station:DISL:CATA:1,2013-10-04T18:30:00Z,30.3085,-88.1395,0.0,6.8,135.0,99.0,'11111222,11111222,11144222' 
DISL,ioos:station:DISL:CATA:1,2013-10-04T19:00:00Z,30.3085,-88.1395,0.0,7.1,136.0,99.0,'11111222,11111222,11144222' 
DISL,ioos:station:DISL:CATA:1,2013-10-04T19:30:00Z,30.3085,-88.1395,0.0,6.8,133.0,99.0,'11111222,11111222,11144222' 
DISL,ioos:station:DISL:CATA:1,2013-10-04T20:00:00Z,30.3085,-88.1395,0.0,5.9,130.0,99.0,'11111222,11111222,11144222' 
DISL,ioos:station:DISL:CATA:1,2013-10-04T20:30:00Z,30.3085,-88.1395,0.0,5.3,130.0,99.0,'11111222,11111222,11144222' 
DISL,ioos:station:DISL:CATA:1,2013-10-04T21:00:00Z,30.3085,-88.1395,0.0,4.9,127.0,99.0,'11111222,11111222,11144222' 
DISL,ioos:station:DISL:CATA:1,2013-10-04T21:30:00Z,30.3085,-88.1395,0.0,5.3,133.0,99.0,'11111222,11111222,11144222' 
DISL,ioos:station:DISL:CATA:1,2013-10-04T22:00:00Z,30.3085,-88.1395,0.0,4.5,125.0,99.0,'11111222,11111222,11144222' 
DISL,ioos:station:DISL:CATA:1,2013-10-04T22:30:00Z,30.3085,-88.1395,0.0,4.0,132.0,99.0,'11111222,11111222,11144222' 
DISL,ioos:station:DISL:CATA:1,2013-10-04T23:00:00Z,30.3085,-88.1395,0.0,4.7,129.0,99.0,'11111222,11111222,11144222' 
DISL,ioos:station:DISL:CATA:1,2013-10-04T23:30:00Z,30.3085,-88.1395,0.0,4.0,128.0,99.0,'11111222,11111222,11144222' 
DISL,ioos:station:DISL:CATA:1,2013-10-05T00:00:00Z,30.3085,-88.1395,0.0,3.3,134.0,99.0,'11111222,11111222,11144222' 
DISL,ioos:station:DISL:CATA:1,2013-10-05T00:30:00Z,30.3085,-88.1395,0.0,2.5,237.0,99.0,'11111222,11111222,11144222' 
DISL,ioos:station:DISL:CATA:1,2013-10-05T01:00:00Z,30.3085,-88.1395,0.0,3.6,104.0,99.0,'11111222,11111222,11144222' 
DISL,ioos:station:DISL:CATA:1,2013-10-05T01:30:00Z,30.3085,-88.1395,0.0,4.5,98.0,99.0,'11111222,11111222,11144222' 
DISL,ioos:station:DISL:CATA:1,2013-10-05T02:00:00Z,30.3085,-88.1395,0.0,5.1,107.0,99.0,'11111222,11111222,11144222' 
DISL,ioos:station:DISL:CATA:1,2013-10-05T02:30:00Z,30.3085,-88.1395,0.0,4.1,99.0,99.0,'11111222,11111222,11144222' 
DISL,ioos:station:DISL:CATA:1,2013-10-05T03:00:00Z,30.3085,-88.1395,0.0,4.8,109.0,99.0,'11111222,11111222,11144222' 
DISL,ioos:station:DISL:CATA:1,2013-10-05T03:30:00Z,30.3085,-88.1395,0.0,4.9,109.0,99.0,'11111222,11111222,11144222' 
DISL,ioos:station:DISL:CATA:1,2013-10-05T04:00:00Z,30.3085,-88.1395,0.0,5.8,129.0,99.0,'11111222,11111222,11144222' 
DISL,ioos:station:DISL:CATA:1,2013-10-05T04:30:00Z,30.3085,-88.1395,0.0,6.1,128.0,99.0,'11111222,11111222,11144222' 
DISL,ioos:station:DISL:CATA:1,2013-10-05T05:00:00Z,30.3085,-88.1395,0.0,6.1,129.0,99.0,'11111222,11111222,11144222' 
DISL,ioos:station:DISL:CATA:1,2013-10-05T05:30:00Z,30.3085,-88.1395,0.0,5.8,128.0,99.0,'11111222,11111222,11144222' 
DISL,ioos:station:DISL:CATA:1,2013-10-05T06:30:00Z,30.3085,-88.1395,0.0,4.8,128.0,99.0,'11111222,11111222,11144222' 
DISL,ioos:station:DISL:CATA:1,2013-10-05T07:00:00Z,30.3085,-88.1395,0.0,4.8,128.0,99.0,'11111222,11111222,11144222' 
DISL,ioos:station:DISL:CATA:1,2013-10-05T07:30:00Z,30.3085,-88.1395,0.0,5.8,124.0,99.0,'11111222,11111222,11144222' 
DISL,ioos:station:DISL:CATA:1,2013-10-05T08:00:00Z,30.3085,-88.1395,0.0,5.2,116.0,99.0,'11111222,11111222,11144222' 